sat.trackr.live / text

‹ back to catalog

STARLINK-32596

NORAD 62316 · 2024-239R

PAYLOAD ACTIVE UNKNOWN

§ Identity

Operator
Country
US
Launch date
2024-12-13
Launch site
AFWTR
Launch vehicle
Mass (kg)
RCS (m²)

Purposes: comms

External: N2YO · Heavens-Above · Gunter

§ Orbital elements

Epoch: 2026-05-24T15:21:59.630400Z

Period
93.85 min
Inclination
53.1589°
Eccentricity
0.0001092
Mean motion
15.34391861 rev/d
Perigee alt
462.0 km
Apogee alt
463.5 km
Semi-major
6,840.9 km
B*
4.9340e-4
RAAN
201.0430°
Arg perigee
83.1388°
Mean anomaly
276.9738°
Rev number
8,101

§ Raw data

STARLINK-325961 62316U 24239R   26144.64027350  .00016326  00000+0  49340-3 0  99922 62316  53.1589 201.0430 0001092  83.1388 276.9738 15.34391861 81017

JSON: /api/v1/satellites/62316 · /tle

For live sub-satellite position, see the globe view (requires WebGL).

§ Visibility from observer

Set your observer location to see the next 7 days of passes ≥ 10°. The values pass through the URL so the page stays shareable.

No JS? Fill the form by hand. The geolocation button needs JavaScript.